Flight Track Log - Related Links

Times and Time Zones

All times are in EST time to prevent confusion due to time zone crossing. See the SKQ41 flight status page for this flight to view local times or setup timezone preferences in your user account.

Time Position Orientation Groundspeed Altitude Reporting Facility
EST Latitude Longitude Course Direction KTS MPH feet Rate Location/Type
Wed 07:13:00 PM 34.2665 -80.8622 33° Northeast  Level FlightAware Approximate
Wed 07:14:00 PM 34.3217 -80.8188 33° Northeast  Level FlightAware Approximate
Wed 07:15:00 PM 34.3769 -80.7753 33° Northeast  Level FlightAware Approximate
Wed 07:16:00 PM 34.4321 -80.7319 33° Northeast  Level FlightAware Approximate
Wed 07:17:00 PM 34.4873 -80.6884 33° Northeast  Level FlightAware Approximate
Wed 07:17:22 PM 34.4708 -80.7708 32° Northeast 254 292 7,000  Level Atlanta Center
Wed 07:18:00 PM 34.5424 -80.6449 33° Northeast  Level FlightAware Approximate
Wed 07:18:23 PM 34.5278 -80.7208 36° Northeast 251 289 7,000  Level Atlanta Center
Wed 07:19:00 PM 34.5976 -80.6012 33° Northeast  Level FlightAware Approximate
Wed 07:19:24 PM 34.5850 -80.6731 35° Northeast 249 287 7,000  Level Atlanta Center
Wed 07:20:00 PM 34.6528 -80.5576 33° Northeast  Level FlightAware Approximate
Wed 07:20:31 PM 34.6525 -80.6222 32° Northeast 246 283 7,000  Level Atlanta Center
Wed 07:21:00 PM 34.7082 -80.5144 32° Northeast  Level FlightAware Approximate
Wed 07:21:32 PM 34.7094 -80.5744 35° Northeast 245 282 7,000  Level Atlanta Center
Wed 07:22:00 PM 34.7639 -80.4718 32° Northeast  Level FlightAware Approximate
Wed 07:22:32 PM 34.7667 -80.5317 32° Northeast 243 280 7,000  Level Atlanta Center
Wed 07:23:39 PM 34.8258 -80.4836 34° Northeast 240 276 7,000  Level Atlanta Center
Wed 07:24:40 PM 34.8850 -80.4356 34° Northeast 242 278 7,000  Level Atlanta Center
Wed 07:25:41 PM 34.9419 -80.3875 35° Northeast 246 283 7,000  Level Atlanta Center
Wed 07:26:42 PM 34.9969 -80.3419 34° Northeast 243 280 7,000  Level Atlanta Center
Wed 07:27:36 PM 35.0481 -80.3017 33° Northeast 239 275 7,000  Level Atlanta Center
Wed 07:28:37 PM 35.1050 -80.2586 32° Northeast 239 275 7,000  Level Atlanta Center
Wed 07:29:32 PM 35.1558 -80.2156 35° Northeast 239 275 7,000  Level Atlanta Center
Wed 07:31:00 PM 35.2223 -80.1344 37° Northeast  Level FlightAware Approximate
Wed 07:38:00 PM 35.5844 -79.8372 32° Northeast  Level FlightAware Approximate
Wed 07:39:00 PM 35.6369 -79.7961 33° Northeast  Level FlightAware Approximate
Wed 07:40:00 PM 35.6894 -79.7548 33° Northeast  Level FlightAware Approximate
Wed 07:41:00 PM 35.7308 -79.7066 30° Northeast  Level FlightAware Approximate
Wed 07:42:00 PM 35.7847 -79.6681 30° Northeast  Level FlightAware Approximate
Wed 07:43:00 PM 35.8389 -79.6305 22° Northeast  Level FlightAware Approximate
Wed 07:44:00 PM 35.8918 -79.5915 39° Northeast  Level FlightAware Approximate
Wed 07:45:00 PM 35.9409 -79.5443 31° Northeast  Level FlightAware Approximate
Wed 07:46:00 PM 35.9941 -79.5044 31° Northeast  Level FlightAware Approximate

Login

Don't have an account? Register now (free) for customized features, flight alerts, and more!